Location: Northern Prairie Star Party
(53.2167°N, 112.5333°W)
Time: 15:58:32
(UTC-06:00)

Daily predictions for brighter satellites

Satellite Brightness Start Highest point End
(mag) Time Altitude Azimuth Time Altitude Azimuth Time Altitude Azimuth
Cosmos 2219 Rocket 2.7 22:42:36 10° NNW 22:48:06 53° NE 22:53:34 10° SE
Cosmos 292 Rocket 4.3 22:45:14 10° NNW 22:49:56 51° ENE 22:54:34 10° SE
Cosmos 2315 Rocket 4.1 22:44:50 10° NNW 22:51:06 84° W 22:57:18 10° S
CZ-4 R/B 4.1 22:46:51 10° NNE 22:51:48 57° ESE 22:56:38 10° S
Terra 2.1 22:47:45 10° SSE 22:52:25 59° ENE 22:57:07 10° N
Cosmos 405 4.4 22:49:07 10° NNW 22:52:30 37° W 22:55:53 10° SSW
SL-14 R/B 4.1 22:50:00 10° SSE 22:53:35 34° E 22:57:14 10° NNE
Meteor 1-27 4.3 22:49:53 10° NNW 22:55:41 85° ENE 23:01:22 10° SSE
Cosmos 2112 Rocket 4.4 22:51:52 10° NNW 22:57:01 60° WSW 23:02:11 10° S
Cosmos 2344 4.4 22:49:25 10° WSW 22:57:23 69° NNW 23:07:27 10° NE
Cosmos 1271 Rocket 3.2 22:54:01 10° N 22:57:42 47° ENE 23:01:25 10° SSE
Cosmos 1980 4.3 22:54:23 10° NNW 22:59:54 50° NE 23:05:23 10° SE
BREEZE-M DEB (TANK) 4.5 22:37:10 10° WSW 22:59:58 70° S 23:04:58 10° E
CARTOSAT-1 3.7 22:57:59 10° SSE 23:02:17 71° ENE 23:06:37 10° N
ARGOS 3.6 22:57:43 10° S 23:03:04 61° WSW 23:08:27 10° NNW
GEOS 3 Rocket 4.0 23:01:25 10° ESE 23:06:34 63° NE 23:11:42 10° NW
Cosmos 2266 Rocket 4.4 23:00:34 10° SSW 23:06:51 70° WNW 23:13:04 10° N
Cosmos 2333 4.3 23:01:31 10° NNW 23:07:15 86° WSW 23:13:00 10° SSE
Cosmos 2219 3.6 23:02:03 10° S 23:07:29 45° ESE 23:12:56 10° NE
Cosmos 1633 Rocket 3.5 23:04:08 10° SSE 23:08:18 45° E 23:12:29 10° NNE
Sich 1 3.4 23:05:46 10° SSE 23:10:02 49° E 23:14:18 10° NNE
Cosmos 1726 2.2 23:08:59 10° NNW 23:12:46 81° W 23:16:33 10° S
Cosmos 2237 Rocket 2.7 23:08:04 10° NNW 23:13:42 56° NE 23:19:18 10° SE
Cosmos 1777 Rocket 4.3 23:08:41 10° SSW 23:13:57 73° WNW 23:19:14 10° NNE
Cosmos 1437 3.1 23:10:54 10° SSW 23:14:11 68° WNW 23:17:29 10° N
H-2A R/B 2.3 23:12:53 10° SSE 23:18:15 82° WSW 23:23:45 10° NNW
Cosmos 1805 Rocket 3.6 23:16:24 10° S 23:20:52 89° E 23:25:21 10° NNE
Iridium 2 4.2 23:17:36 10° SSE 23:21:16 45° E 23:24:58 10° NNE
ATLAS 2AS CENTAUR R/B 4.4 23:17:18 10° SE 23:21:55 17° ESE 23:26:42 10° ENE
Cosmos 2151 3.6 23:18:00 10° SSW 23:22:07 56° WNW 23:26:18 10° N
SAR-Lupe-2 3.6 23:22:34 10° SSE 23:26:08 77° WSW 23:29:45 10° NNW
Nadezhda 1 Rocket 4.1 23:20:16 10° N 23:26:22 70° ENE 23:32:17 11° SSE
ALOS 2 4.5 23:24:16 10° ESE 23:27:31 21° ENE 23:30:47 10° N
Cosmos 2360 Rocket 3.6 23:23:17 10° NW 23:28:07 30° WSW 23:32:56 10° SSW
Meteor 1-11 4.3 23:26:14 10° S 23:32:01 86° ESE 23:37:47 10° NNE
Cosmos 1707 Rocket 4.5 23:28:28 10° NNW 23:32:37 44° W 23:36:45 10° SSW
CZ-4C R/B 4.0 23:32:53 10° NW 23:38:50 39° NNE 23:45:31 10° E
ATLAS 3B R/B 3.1 23:33:22 10° NW 23:40:37 67° NE 23:47:23 10° ESE
Lacrosse 4 Rocket 2.8 23:36:48 10° NNW 23:40:52 36° NE 23:45:00 10° ESE
Cosmos 1666 Rocket 3.7 23:38:21 10° SSW 23:42:45 76° WNW 23:47:13 10° N
Cosmos 1745 Rocket 4.0 23:37:14 10° S 23:43:25 70° E 23:49:35 10° NNE
DMSP B5D2-2 4.1 23:39:37 10° NNE 23:44:54 76° ESE 23:50:07 10° S
Cosmos 1300 4.3 23:41:40 10° NNW 23:45:03 30° W 23:48:25 10° SSW
NOSS 3-1 (C) 3.7 23:40:58 10° SSW 23:46:43 49° ESE 23:53:08 10° NE
Cosmos 1869 3.4 23:47:23 10° N 23:51:28 73° ENE 23:54:46 15° SSE
Cosmos 2150 Rocket 4.2 23:46:43 10° S 23:52:06 65° ESE 23:57:33 10° NNE
Cosmos 1703 Rocket 4.3 23:48:57 10° N 23:53:06 41° ENE 23:56:37 14° SE
Meteor 1-4 Rocket 3.6 23:50:12 10° NNW 23:53:49 41° W 23:57:18 10° SSW
CZ-4B R/B 3.4 23:51:29 10° ESE 23:54:15 22° ENE 23:56:58 10° NNE
H-2A R/B 4.4 23:52:29 10° NE 23:55:06 16° E 23:57:31 11° SE
